EW2190 Narragansett RI US current weather conditions

sailwx.info

Wind from 190 at 6 knots gusting 16

Air temperature 5.6° C
Dewpoint 5.0° C

Last reported at 2020-Apr-04 10:01 UTC.
Time now 2020-Apr-04 11:17 UTC

Location: N 41°27' W 071°27'.
View on Google Maps.

See reports from other nearby stations

  
Tides and Currents Weather Stations Pressure Air Temp Water Temp Dewpoint Dewpoint Depression Visibility Wind Speed Wind Dir Waves Ship Positions
date/time (UTC)wind fromknots sea level pressurealtimeterstation pressurevisibilityair tempwater tempwave heightnotes
2020-Apr-04 10:01 190 6 gusting 16 5.6
2020-Apr-04 09:46 190 8 gusting 16 5.6
2020-Apr-04 09:31 190 6 gusting 19 5.6
2020-Apr-04 09:16 190 6 gusting 12 5.6
2020-Apr-04 09:01 190 7 gusting 15 5.6
2020-Apr-04 08:46 190 7 gusting 15 6.1
2020-Apr-04 08:32 190 7 gusting 14 6.1
2020-Apr-04 08:15 190 7 gusting 22 6.1
2020-Apr-04 08:01 190 7 gusting 13 6.7
2020-Apr-04 07:45 190 5 gusting 17 6.7
2020-Apr-04 07:31 190 8 gusting 15 6.7
2020-Apr-04 07:15 190 8 gusting 16 6.7
2020-Apr-04 07:00 190 7 gusting 17 6.7
2020-Apr-04 06:45 190 6 gusting 17 6.7
2020-Apr-04 06:30 190 7 gusting 19 6.7
2020-Apr-04 06:15 190 8 gusting 19 6.7
2020-Apr-04 06:00 190 8 gusting 19 6.7
2020-Apr-04 05:45 190 5 gusting 17 6.7
2020-Apr-04 05:30 190 5 gusting 17 6.7
2020-Apr-04 05:15 190 10 gusting 18 6.7
2020-Apr-04 05:00 190 8 gusting 17 6.7
2020-Apr-04 04:45 190 7 gusting 24 6.7
2020-Apr-04 04:30 190 8 gusting 19 6.7
2020-Apr-04 04:15 190 7 gusting 16 6.7
2020-Apr-04 04:03 190 8 gusting 16 6.7
2020-Apr-04 03:46 190 6 gusting 17 6.7
2020-Apr-04 03:33 190 9 gusting 15 7.2
2020-Apr-04 03:30 190 8 gusting 15 7.2
2020-Apr-04 03:17 190 7 gusting 16 7.2
2020-Apr-04 03:01 190 6 gusting 16 7.2
2020-Apr-04 02:46 190 8 gusting 19 7.2
2020-Apr-04 02:32 190 9 gusting 18 7.2
2020-Apr-04 02:18 190 7 gusting 15 7.2
2020-Apr-04 02:02 190 7 gusting 17 7.2
2020-Apr-04 01:46 190 10 gusting 18 7.2
2020-Apr-04 01:30 190 9 gusting 20 7.2
2020-Apr-04 01:16 190 8 gusting 16 7.2
2020-Apr-04 01:01 190 9 gusting 18 7.2
2020-Apr-04 00:45 190 9 gusting 21 7.2
2020-Apr-04 00:31 190 10 gusting 19 7.2
2020-Apr-04 00:16 190 8 gusting 18 7.2
2020-Apr-04 00:01 190 8 gusting 20 7.2
2020-Apr-03 23:46 190 9 gusting 21 7.2
2020-Apr-03 23:30 190 10 gusting 20 7.2
2020-Apr-03 23:15 190 8 gusting 24 7.2
2020-Apr-03 23:01 190 9 gusting 21 7.2
2020-Apr-03 22:45 190 10 gusting 20 7.2
2020-Apr-03 22:31 190 11 gusting 24 7.2
2020-Apr-03 22:15 190 10 gusting 23 7.2
2020-Apr-03 22:00 190 13 gusting 27 7.8
2020-Apr-03 21:45 190 11 gusting 25 7.8
2020-Apr-03 21:30 190 12 gusting 24 7.8
2020-Apr-03 21:15 190 12 gusting 24 7.8
2020-Apr-03 21:00 190 10 gusting 31 7.2
2020-Apr-03 20:45 190 9 gusting 24 7.2
2020-Apr-03 20:30 190 10 gusting 26 7.2
2020-Apr-03 20:15 190 11 gusting 22 7.2
2020-Apr-03 20:00 190 12 gusting 29 7.2
2020-Apr-03 19:45 190 13 gusting 26 7.2
2020-Apr-03 19:30 190 13 gusting 24 7.2
2020-Apr-03 19:15 190 14 gusting 24 7.2
2020-Apr-03 19:00 190 14 gusting 22 7.2
2020-Apr-03 18:45 190 12 gusting 26 7.2
2020-Apr-03 18:16 190 12 gusting 24 7.2
2020-Apr-03 18:03 190 12 gusting 21 7.2
2020-Apr-03 17:47 190 13 gusting 25 7.2
2020-Apr-03 17:31 190 14 gusting 26 7.2
2020-Apr-03 17:17 190 11 gusting 24 7.2
2020-Apr-03 17:02 190 11 gusting 26 7.2
2020-Apr-03 16:46 190 16 gusting 29 7.2
2020-Apr-03 16:32 190 13 gusting 26 7.2
2020-Apr-03 16:16 190 12 gusting 23 7.2
2020-Apr-03 16:01 190 14 gusting 26 7.2
2020-Apr-03 15:46 190 13 gusting 26 7.8
2020-Apr-03 15:31 190 14 gusting 28 7.8
2020-Apr-03 15:16 190 14 gusting 24 7.8
2020-Apr-03 15:01 190 11 gusting 32 7.8
2020-Apr-03 14:46 190 12 gusting 26 7.8
2020-Apr-03 14:31 190 14 gusting 25 7.8
2020-Apr-03 14:16 190 17 gusting 26 7.8
2020-Apr-03 14:01 190 14 gusting 27 8.3
2020-Apr-03 13:46 190 13 gusting 25 8.3
2020-Apr-03 13:31 190 13 gusting 23 8.3
2020-Apr-03 13:16 190 13 gusting 27 8.3
2020-Apr-03 13:00 190 13 gusting 25 8.3
2020-Apr-03 12:45 190 16 gusting 26 8.3
2020-Apr-03 11:30 190 13 gusting 22 7.2
2020-Apr-03 11:15 190 13 gusting 22 7.2
2020-Apr-03 11:00 190 13 gusting 20 7.2
2020-Apr-03 10:45 190 13 gusting 19 7.2
2020-Apr-03 10:31 190 13 gusting 19 7.2
2020-Apr-03 10:15 190 13 gusting 19 6.7
2020-Apr-03 10:00 190 12 gusting 17 6.7
2020-Apr-03 09:45 190 13 gusting 20 7.2
2020-Apr-03 09:30 190 13 gusting 19 7.2
2020-Apr-03 09:15 190 12 gusting 17 7.2
2020-Apr-03 09:00 190 10 gusting 15 7.2
2020-Apr-03 08:45 190 13 gusting 19 7.2
2020-Apr-03 08:30 190 13 gusting 19 7.2
2020-Apr-03 08:15 190 13 gusting 22 7.2
2020-Apr-03 08:00 190 12 gusting 18 7.2
2020-Apr-03 07:45 190 9 gusting 16 7.2
2020-Apr-03 07:30 190 8 gusting 18 7.2
2020-Apr-03 07:15 190 9 gusting 19 7.2
2020-Apr-03 07:00 190 9 gusting 17 6.7
2020-Apr-03 06:48 190 12 gusting 18 6.7
2020-Apr-03 06:33 190 8 gusting 17 6.7
2020-Apr-03 06:16 190 12 gusting 17 6.7
2020-Apr-03 06:01 190 11 gusting 16 6.1
2020-Apr-03 05:47 190 10 gusting 15 6.1
2020-Apr-03 05:31 190 13 gusting 18 6.1
2020-Apr-03 05:16 190 11 gusting 19 6.1
2020-Apr-03 05:01 190 10 gusting 15 6.1
2020-Apr-03 04:45 190 8 gusting 17 5.6
2020-Apr-03 04:31 190 9 gusting 15 5.6
2020-Apr-03 04:16 190 9 gusting 16 5.6
2020-Apr-03 04:02 190 12 gusting 16 5.6
2020-Apr-03 03:45 190 9 gusting 15 5.0
2020-Apr-03 03:30 190 13 gusting 24 5.0
2020-Apr-03 03:16 190 9 gusting 18 5.0
2020-Apr-03 03:00 190 8 gusting 16 5.0
2020-Apr-03 02:45 190 9 gusting 19 5.0
2020-Apr-03 02:30 190 12 gusting 19 5.0
2020-Apr-03 02:16 190 9 gusting 19 5.6
2020-Apr-03 02:01 190 12 gusting 20 5.6
2020-Apr-03 01:45 190 10 gusting 19 5.6
2020-Apr-03 01:30 190 12 gusting 21 5.6
2020-Apr-03 01:16 190 10 gusting 22 5.6
2020-Apr-03 01:00 190 14 gusting 23 5.6
2020-Apr-03 00:45 190 14 gusting 22 6.1
2020-Apr-03 00:31 190 16 gusting 24 6.1
2020-Apr-03 00:15 190 11 gusting 23 6.7
2020-Apr-03 00:00 190 10 gusting 19 6.7
2020-Apr-02 23:45 190 11 gusting 24 7.2
2020-Apr-02 23:30 190 9 gusting 13 7.2
2020-Apr-02 23:15 190 17 gusting 30 7.8
2020-Apr-02 23:00 190 12 gusting 21 8.3
2020-Apr-02 22:45 190 9 gusting 17 8.9
2020-Apr-02 22:30 190 12 gusting 19 8.9
2020-Apr-02 18:01 190 11 gusting 15 11.7
2020-Apr-02 17:30
2020-Apr-02 17:16
2020-Apr-02 17:01
2020-Apr-02 16:01 11.1
2020-Apr-02 15:00